#timestamp,LO_Frequency,Hit,StdDev 
1513018815.8,286047003.4,N
1513018835.6,286047001.0,N
1513018855.4,286046996.2,N
1513018875.3,286046994.2,Y
1513018895.1,286046992.7,P
1513018915.9,286046990.2,N
1513018935.7,286046994.3,N
1513018955.5,286046996.2,N
1513018975.4,286046994.2,N
1513018995.2,286046998.9,N
1513019015.1,286046999.0,N
1513019016.0,286046999.0,N
1513019035.8,286046997.1,N
1513019055.6,286046997.2,N
1513019075.5,286046995.7,N
1513019095.3,286046997.5,N
1513019115.2,286046998.4,N
1513019135.9,286047001.1,N
1513019155.7,286046998.7,N
1513019175.6,286046994.9,N
1513019195.4,286046997.6,N
1513019215.2,286047000.5,N
1513019235.1,286047001.0,N
1513019236.0,286047001.0,N
1513019255.8,286047002.2,N
1513019275.7,286047000.7,N
1513019295.5,286047000.3,N
1513019315.3,286046998.7,N
1513019335.2,286046998.7,N
1513019355.0,286046993.3,N
1513019355.9,286046993.3,N
1513019375.8,286046997.6,N
1513019395.6,286046996.1,N
1513019415.4,286046994.9,N
1513019435.3,286046995.8,N
1513019455.1,286046997.0,N
1513019475.9,286046999.2,N
1513019495.7,286046999.9,N
1513019515.5,286047000.1,N
1513019535.4,286046996.5,N
1513019555.2,286046993.5,N
1513019575.0,286046998.0,N
1513019575.9,286046998.0,N
1513019595.8,286046993.6,N
1513019615.6,286046994.6,N
1513019635.5,286046993.7,N
1513019655.3,286046997.1,N
1513019675.1,286046993.3,N
1513019695.9,286046994.6,N
1513019715.7,286046997.3,N
1513019735.5,286046997.1,N
1513019755.4,286046997.9,N
1513019775.2,286046999.5,N
1513019795.1,286047002.3,N
1513019796.0,286047002.3,N
1513019815.8,286047003.6,N
1513019835.6,286047004.1,N
1513019855.5,286046999.3,N
1513019875.3,286046997.2,N
1513019895.2,286046997.9,N
1513019915.9,286046997.6,N
1513019935.7,286046997.6,N
1513019955.6,286046997.1,N
1513019975.4,286046999.4,N
1513019995.2,286047001.2,N
1513020015.1,286047000.8,N
1513020016.0,286047000.8,N
1513020035.8,286046998.9,N
1513020055.7,286046995.5,N
1513020075.5,286046994.6,N
1513020095.3,286046996.8,N
1513020115.2,286046996.3,N
1513020135.0,286046992.8,N
1513020135.9,286046992.8,N
1513020155.8,286046995.7,N
1513020175.6,286047000.8,N
1513020195.4,286047000.9,N
1513020215.3,286046998.6,N
1513020235.1,286047000.6,N
1513020255.8,286047004.2,N
1513020275.7,286047001.5,N
1513020295.5,286047004.9,N
1513020315.4,286047005.3,N
1513020335.2,286047004.6,N
1513020355.0,286046998.9,N
1513020355.9,286046998.9,N
1513020375.8,286046998.9,N
1513020395.6,286046997.6,N
1513020415.5,286047001.1,N
1513020435.3,286047000.8,N
1513020455.1,286047002.8,N
1513020475.9,286047003.9,N
1513020495.7,286047003.9,N
1513020515.5,286047005.7,N
1513020535.4,286047007.8,N
1513020555.2,286047005.6,N
1513020575.1,286047002.2,N
1513020576.0,286047002.2,N
1513020595.8,286046998.4,N
1513020615.6,286046999.3,N
1513020635.5,286046999.5,N
1513020655.3,286046996.5,N
1513020675.1,286046995.9,N
1513020695.9,286046993.2,N
1513020715.7,286046990.1,N
1513020735.6,286046992.8,N
1513020755.4,286046992.1,N
1513020775.2,286046993.6,N
1513020795.1,286046990.4,N
1513020796.0,286046990.4,N
1513020815.8,286046990.1,N
1513020835.7,286046991.3,N
1513020855.5,286046991.8,N
1513020875.3,286046993.5,N
1513020895.2,286046999.0,N
1513020915.0,286047001.1,N
1513020915.9,286047001.1,N
1513020935.8,286046997.8,N
1513020955.6,286046997.4,N
1513020975.4,286046997.5,N
1513020995.3,286046997.0,N
1513021015.1,286046999.1,N
1513021035.8,286046995.7,N
1513021055.7,286046997.0,N
1513021075.5,286046993.8,N
1513021095.4,286046995.7,N
1513021115.2,286046998.0,N
1513021135.0,286046996.7,N
1513021135.9,286046996.7,N
1513021155.8,286046992.5,N
1513021175.6,286046994.8,N
1513021195.4,286046990.2,Y
1513021215.3,286046999.2,P
1513021235.1,286046996.1,N
1513021255.9,286046994.5,P
1513021275.7,286046995.5,N
1513021295.5,286046997.8,N
1513021315.4,286046997.7,N
1513021335.2,286046992.8,Y
1513021355.1,286046992.7,P
1513021356.0,286046992.7,P
1513021375.8,286046996.4,N
1513021395.6,286046993.1,Y
1513021415.5,286046995.6,P
1513021435.3,286046995.9,P
1513021455.2,286046993.8,P
1513021475.9,286046993.1,Y
1513021495.7,286046998.7,P
1513021515.6,286047002.3,N
1513021535.4,286047004.0,N
1513021555.2,286047010.6,Y
1513021575.1,286047009.1,P
1513021576.0,286047009.1,N
1513021595.8,286047009.2,N
1513021615.7,286047011.6,N
1513021635.5,286047009.4,N
1513021655.3,286047009.2,N
1513021675.2,286047006.3,N
1513021695.0,286047009.0,N
1513021695.9,286047009.0,N
1513021715.8,286047008.8,N
1513021735.6,286047003.1,N
1513021755.4,286047010.6,Y
1513021775.3,286047001.3,P
1513021795.1,286047003.1,N
1513021815.8,286047004.9,N
1513021835.7,286047004.7,N
1513021855.5,286047005.3,N
1513021875.4,286047003.7,N
1513021895.2,286047003.0,N
1513021915.0,286047005.4,N
1513021915.9,286047005.4,Y
1513021935.8,286047002.6,P
1513021955.6,286047001.9,N
1513021975.5,286046998.8,N
1513021995.3,286047003.3,N
1513022015.1,286047003.6,N
1513022035.9,286047003.0,N
1513022055.7,286047001.4,N
1513022075.5,286047003.1,N
1513022095.4,286047001.3,N
1513022115.2,286047002.7,N
1513022135.1,286047007.6,Y
1513022136.0,286047007.6,P
1513022155.8,286046998.2,N
1513022175.6,286046996.5,N
1513022195.5,286046998.7,N
1513022245.4,286046993.7,E
1513022255.3,286047000.0,N
1513022275.1,286047007.6,P
1513022295.8,286047005.5,N
1513022315.7,286047007.6,N
1513022335.5,286047002.2,N
1513022355.4,286047002.2,N
1513022375.2,286046998.4,N
1513022395.0,286047005.2,N
1513022395.9,286047005.2,N
